BAW301H RPMD-PGUM

Flight info

Callsign BAW301H
Flight time N/A
Altitude 41000
Route DAPEL1A DAPEL DCT OLBIE M756 AIBIE DCT ROR DCT PIGFA A450 BUCAT DCT OBALE
Aircraft B748/H-SDE3FGHIM1M2RWXY/LB1

Departure

Time 2026-05-06 03:11
Airport Francisco Bangoy International Airport (RPMD)

Arrival

Time N/A
Airport Antonio B. Won Pat International Airport (PGUM)
Time Latitude Longitude Altitude Speed Heading
2026-05-06 02:55 7.12936 125.64560 122 ft 0 kts 319°
2026-05-06 02:59 7.12932 125.64564 122 ft 2 kts 319°
2026-05-06 02:59 7.12921 125.64574 122 ft 2 kts 319°
2026-05-06 03:00 7.12914 125.64580 122 ft 2 kts 318°
2026-05-06 03:00 7.12904 125.64591 122 ft 2 kts 297°
2026-05-06 03:00 7.12899 125.64605 122 ft 2 kts 280°
2026-05-06 03:00 7.12898 125.64620 122 ft 2 kts 264°
2026-05-06 03:01 7.12901 125.64635 122 ft 2 kts 248°
2026-05-06 03:01 7.12908 125.64647 122 ft 1 kts 231°
2026-05-06 03:01 7.12912 125.64651 122 ft 0 kts 228°
2026-05-06 03:03 7.12907 125.64646 122 ft 2 kts 228°
2026-05-06 03:03 7.12887 125.64624 122 ft 5 kts 227°
2026-05-06 03:04 7.12857 125.64590 122 ft 7 kts 229°
2026-05-06 03:04 7.12817 125.64545 122 ft 9 kts 230°
2026-05-06 03:04 7.12773 125.64495 122 ft 7 kts 226°
2026-05-06 03:04 7.12724 125.64459 122 ft 9 kts 190°
2026-05-06 03:05 7.12657 125.64484 122 ft 11 kts 143°
2026-05-06 03:05 7.12588 125.64539 122 ft 12 kts 155°
2026-05-06 03:05 7.12501 125.64515 122 ft 14 kts 223°
2026-05-06 03:05 7.12426 125.64433 122 ft 17 kts 229°
2026-05-06 03:06 7.12343 125.64338 122 ft 19 kts 229°
2026-05-06 03:06 7.12251 125.64231 122 ft 21 kts 230°
2026-05-06 03:06 7.12153 125.64113 122 ft 22 kts 230°
2026-05-06 03:06 7.12044 125.63988 122 ft 24 kts 227°
2026-05-06 03:07 7.11933 125.63850 122 ft 24 kts 236°
2026-05-06 03:07 7.11842 125.63748 122 ft 17 kts 226°
2026-05-06 03:07 7.11792 125.63696 122 ft 1 kts 227°
2026-05-06 03:07 7.11780 125.63682 122 ft 3 kts 233°
2026-05-06 03:08 7.11764 125.63654 122 ft 5 kts 253°
2026-05-06 03:08 7.11759 125.63615 122 ft 6 kts 264°
2026-05-06 03:08 7.11748 125.63570 122 ft 6 kts 240°
2026-05-06 03:08 7.11709 125.63554 122 ft 6 kts 150°
2026-05-06 03:09 7.11704 125.63588 122 ft 0 kts 54°
2026-05-06 03:10 7.11721 125.63611 122 ft 14 kts 52°
2026-05-06 03:10 7.11951 125.63878 123 ft 91 kts 49°
2026-05-06 03:10 7.12548 125.64570 124 ft 164 kts 49°
2026-05-06 03:10 7.13100 125.65196 222 ft 194 kts 46°
2026-05-06 03:11 7.14269 125.66713 1262 ft 215 kts 66°
2026-05-06 03:11 7.14521 125.68156 2079 ft 215 kts 96°
2026-05-06 03:11 7.13987 125.69604 2439 ft 237 kts 129°
2026-05-06 03:11 7.12650 125.70670 2980 ft 255 kts 153°
2026-05-06 03:12 7.10980 125.71416 3591 ft 270 kts 157°
2026-05-06 03:12 7.09227 125.72157 4401 ft 276 kts 156°
2026-05-06 03:12 7.07466 125.72935 5277 ft 280 kts 155°
2026-05-06 03:12 7.05684 125.73739 6118 ft 284 kts 155°
2026-05-06 03:13 7.03886 125.74571 6953 ft 287 kts 154°
2026-05-06 03:13 7.02074 125.75427 7780 ft 291 kts 154°
2026-05-06 03:13 7.00242 125.76314 8590 ft 294 kts 153°
2026-05-06 03:13 6.98411 125.77228 9355 ft 298 kts 151°
2026-05-06 03:14 6.96673 125.78366 10100 ft 300 kts 142°
2026-05-06 03:14 6.95002 125.79649 10783 ft 307 kts 141°
2026-05-06 03:14 6.93271 125.80976 11257 ft 321 kts 141°
2026-05-06 03:14 6.91440 125.82372 11647 ft 339 kts 142°
2026-05-06 03:15 6.89515 125.83845 11975 ft 358 kts 141°
2026-05-06 03:15 6.87477 125.85406 12249 ft 378 kts 141°
2026-05-06 03:15 6.85314 125.87066 12521 ft 397 kts 142°
2026-05-06 03:15 6.83069 125.88795 13056 ft 408 kts 142°
2026-05-06 03:16 6.80824 125.90533 13832 ft 412 kts 141°
2026-05-06 03:16 6.78544 125.92308 14630 ft 414 kts 141°
2026-05-06 03:16 6.76288 125.94073 15362 ft 416 kts 141°
2026-05-06 03:16 6.74163 125.96075 16010 ft 417 kts 128°
2026-05-06 03:17 6.72653 125.98515 16655 ft 419 kts 112°
2026-05-06 03:17 6.71890 126.01358 17281 ft 420 kts 96°
2026-05-06 03:17 6.72006 126.04283 17882 ft 423 kts 81°
2026-05-06 03:17 6.72500 126.07200 18478 ft 427 kts 81°
2026-05-06 03:18 6.72994 126.10129 19063 ft 430 kts 81°
2026-05-06 03:18 6.73546 126.13104 19642 ft 434 kts 79°
2026-05-06 03:18 6.74114 126.16065 20187 ft 437 kts 81°
2026-05-06 03:18 6.74578 126.19106 20688 ft 442 kts 83°
2026-05-06 03:19 6.74990 126.22166 21202 ft 445 kts 83°
2026-05-06 03:19 6.75403 126.25251 21702 ft 448 kts 83°
2026-05-06 03:19 6.75823 126.28351 22154 ft 452 kts 83°
2026-05-06 03:19 6.76251 126.31479 22641 ft 455 kts 83°
2026-05-06 03:20 6.77124 126.37817 23578 ft 463 kts 83°
2026-05-06 03:20 6.77568 126.41026 24044 ft 466 kts 83°
2026-05-06 03:20 6.78016 126.44260 24524 ft 468 kts 82°
2026-05-06 03:21 6.78470 126.47524 24951 ft 472 kts 82°
2026-05-06 03:21 6.78921 126.50771 25391 ft 475 kts 82°
2026-05-06 03:21 6.79382 126.54073 25851 ft 477 kts 82°
2026-05-06 03:21 6.79846 126.57407 26263 ft 481 kts 82°
2026-05-06 03:22 6.80307 126.60715 26661 ft 484 kts 82°
2026-05-06 03:22 6.80774 126.64061 27043 ft 487 kts 82°
2026-05-06 03:22 6.81250 126.67474 27439 ft 491 kts 82°
2026-05-06 03:22 6.81724 126.70855 27853 ft 493 kts 82°
2026-05-06 03:23 6.82202 126.74253 28250 ft 496 kts 82°
2026-05-06 03:23 6.82684 126.77719 28663 ft 498 kts 82°
2026-05-06 03:23 6.83165 126.81169 29007 ft 501 kts 82°
2026-05-06 03:23 6.83647 126.84609 29317 ft 505 kts 82°
2026-05-06 03:24 6.84137 126.88118 29650 ft 509 kts 82°
2026-05-06 03:24 6.84628 126.91645 30003 ft 512 kts 82°
2026-05-06 03:24 6.85125 126.95209 30437 ft 513 kts 82°
2026-05-06 03:24 6.85621 126.98760 30946 ft 512 kts 82°
2026-05-06 03:25 6.86111 127.02284 31479 ft 510 kts 82°
2026-05-06 03:25 6.86598 127.05779 31889 ft 510 kts 82°
2026-05-06 03:25 6.87093 127.09336 32239 ft 512 kts 82°
2026-05-06 03:25 6.87583 127.12855 32634 ft 513 kts 82°
2026-05-06 03:26 6.88078 127.16406 33127 ft 512 kts 82°
2026-05-06 03:26 6.88568 127.19930 33708 ft 509 kts 82°
2026-05-06 03:26 6.89057 127.23441 34365 ft 505 kts 82°
2026-05-06 03:26 6.89541 127.26908 35046 ft 500 kts 82°
2026-05-06 03:27 6.90022 127.30357 35607 ft 498 kts 82°
2026-05-06 03:27 6.90499 127.33796 35962 ft 499 kts 82°
2026-05-06 03:27 6.90975 127.37235 36320 ft 499 kts 82°
2026-05-06 03:27 6.91457 127.40706 36744 ft 498 kts 82°
2026-05-06 03:28 6.92408 127.47543 36839 ft 492 kts 82°
2026-05-06 03:28 6.93356 127.54387 36841 ft 495 kts 82°
2026-05-06 03:29 6.94302 127.61226 36834 ft 494 kts 82°
2026-05-06 03:29 6.95249 127.68096 36981 ft 498 kts 82°
2026-05-06 03:30 6.95727 127.71556 37182 ft 499 kts 82°
2026-05-06 03:30 6.96204 127.75015 37492 ft 500 kts 83°
2026-05-06 03:30 6.96674 127.78434 37981 ft 500 kts 83°
2026-05-06 03:30 6.97154 127.81912 38751 ft 496 kts 83°
2026-05-06 03:31 6.97617 127.85317 39673 ft 490 kts 83°
2026-05-06 03:31 6.98070 127.88657 40492 ft 485 kts 83°
2026-05-06 03:31 6.98525 127.92005 40843 ft 485 kts 83°
2026-05-06 03:31 6.98981 127.95338 40813 ft 479 kts 82°
2026-05-06 03:32 6.99893 128.01993 40837 ft 479 kts 82°
2026-05-06 03:32 7.00802 128.08630 40905 ft 481 kts 82°
2026-05-06 03:33 7.01707 128.15251 40913 ft 481 kts 82°
2026-05-06 03:33 7.02611 128.21860 40907 ft 478 kts 82°
2026-05-06 03:34 7.03519 128.28513 40903 ft 478 kts 82°
2026-05-06 03:34 7.04424 128.35149 40879 ft 482 kts 82°
2026-05-06 03:35 7.05329 128.41791 40821 ft 482 kts 82°
2026-05-06 03:35 7.06236 128.48448 40812 ft 478 kts 82°
2026-05-06 03:36 7.07138 128.55087 40827 ft 480 kts 82°
2026-05-06 03:36 7.08037 128.61706 40832 ft 481 kts 82°
2026-05-06 03:37 7.08942 128.68378 40822 ft 477 kts 82°
2026-05-06 03:37 7.09840 128.74995 40821 ft 479 kts 82°
2026-05-06 03:38 7.10735 128.81609 40828 ft 480 kts 82°
2026-05-06 03:38 7.11631 128.88237 40830 ft 480 kts 82°
2026-05-06 03:39 7.12527 128.94864 40820 ft 477 kts 82°
2026-05-06 03:39 7.13427 129.01535 40817 ft 480 kts 82°
2026-05-06 03:40 7.14319 129.08145 40826 ft 481 kts 82°
2026-05-06 03:40 7.15215 129.14793 40825 ft 479 kts 82°
2026-05-06 03:41 7.16104 129.21405 40814 ft 477 kts 82°
2026-05-06 03:41 7.17000 129.28067 40810 ft 477 kts 82°
2026-05-06 03:42 7.17887 129.34676 40817 ft 479 kts 82°
2026-05-06 03:42 7.18774 129.41280 40821 ft 475 kts 82°
2026-05-06 03:43 7.19659 129.47881 40822 ft 475 kts 82°
2026-05-06 03:43 7.20545 129.54497 40826 ft 478 kts 82°
2026-05-06 03:44 7.21428 129.61084 40821 ft 478 kts 82°
2026-05-06 03:44 7.22313 129.67691 40808 ft 475 kts 82°
2026-05-06 03:45 7.23194 129.74280 40797 ft 475 kts 82°
2026-05-06 03:45 7.24078 129.80890 40805 ft 477 kts 82°
2026-05-06 03:46 7.24960 129.87474 40809 ft 478 kts 82°
2026-05-06 03:46 7.25851 129.94084 40798 ft 478 kts 82°
2026-05-06 03:47 7.26691 130.00700 40817 ft 481 kts 85°
2026-05-06 03:47 7.26922 130.07405 40816 ft 479 kts 88°
2026-05-06 03:48 7.27048 130.14101 40809 ft 476 kts 88°
2026-05-06 03:48 7.27199 130.20721 40809 ft 478 kts 88°
2026-05-06 03:49 7.27360 130.27411 40805 ft 477 kts 88°
2026-05-06 03:49 7.27527 130.34125 40812 ft 478 kts 88°
2026-05-06 03:50 7.27696 130.40771 40823 ft 479 kts 88°
2026-05-06 03:50 7.27867 130.47446 40827 ft 477 kts 88°
2026-05-06 03:51 7.28037 130.54077 40818 ft 475 kts 88°
2026-05-06 03:51 7.28215 130.60719 40821 ft 477 kts 88°
2026-05-06 03:52 7.28386 130.67394 40820 ft 473 kts 88°
2026-05-06 03:52 7.28560 130.74023 40813 ft 475 kts 88°
2026-05-06 03:53 7.28730 130.80692 40820 ft 477 kts 88°
2026-05-06 03:53 7.28902 130.87338 40819 ft 474 kts 88°
2026-05-06 03:54 7.29070 130.93976 40822 ft 476 kts 88°
2026-05-06 03:54 7.29239 131.00569 40833 ft 477 kts 88°
2026-05-06 03:55 7.29406 131.07228 40825 ft 474 kts 88°
2026-05-06 03:55 7.29572 131.13886 40809 ft 474 kts 88°
2026-05-06 03:56 7.29740 131.20525 40804 ft 477 kts 88°
2026-05-06 03:56 7.29899 131.27133 40807 ft 475 kts 88°
2026-05-06 03:57 7.30068 131.33794 40794 ft 474 kts 88°
2026-05-06 03:57 7.30227 131.40451 40798 ft 475 kts 88°
2026-05-06 03:58 7.30390 131.47066 40801 ft 476 kts 88°
2026-05-06 03:58 7.30548 131.53690 40800 ft 473 kts 89°
2026-05-06 03:59 7.30710 131.60307 40798 ft 475 kts 89°
2026-05-06 03:59 7.30865 131.66940 40813 ft 476 kts 89°
2026-05-06 04:00 7.31026 131.73573 40803 ft 474 kts 89°
2026-05-06 04:00 7.31180 131.80214 40814 ft 476 kts 89°
2026-05-06 04:01 7.31337 131.86861 40816 ft 473 kts 89°
2026-05-06 04:01 7.31489 131.93459 40815 ft 475 kts 89°
2026-05-06 04:02 7.31644 132.00101 40825 ft 476 kts 89°
2026-05-06 04:02 7.31795 132.06697 40821 ft 473 kts 89°
2026-05-06 04:03 7.31949 132.13373 40815 ft 474 kts 89°
2026-05-06 04:03 7.32099 132.20024 40815 ft 476 kts 89°
2026-05-06 04:04 7.32248 132.26633 40824 ft 475 kts 89°
2026-05-06 04:04 7.32396 132.33272 40816 ft 474 kts 89°
2026-05-06 04:05 7.32544 132.39903 40823 ft 478 kts 89°
2026-05-06 04:05 7.32693 132.46562 40829 ft 476 kts 89°
2026-05-06 04:06 7.32839 132.53214 40816 ft 474 kts 89°
2026-05-06 04:06 7.32985 132.59839 40811 ft 473 kts 89°
2026-05-06 04:07 7.33130 132.66498 40818 ft 476 kts 89°
2026-05-06 04:07 7.33274 132.73100 40825 ft 476 kts 89°
2026-05-06 04:08 7.33418 132.79761 40815 ft 475 kts 89°
2026-05-06 04:08 7.33561 132.86426 40817 ft 474 kts 89°
2026-05-06 04:09 7.33632 132.89740 40828 ft 476 kts 89°